Regional Weather Roundup
Issued by NWS Albany, NY

Home | Current Version | Previous Version | Graphics & Text | Print | Product List | Glossary Off
Versions: 1 2 3 4 5 6 7 8 9 10 11 12 13 14 15 16 17 18 19 20 21 22 23 24 25 26 27 28 29 30 31 32 33 34 35 36 37 38 39 40 41 42 43 44 45 46 47 48 49 50

000
ASUS41 KALY 222010
RWRALY

NEW YORK STATE HOURLY WEATHER ROUNDUP
NATIONAL WEATHER SERVICE ALBANY NY
400 PM EDT MON SEP 22 2014

NOTE: "FAIR" INDICATES FEW OR NO CLOUDS BELOW 12,000 FEET WITH NO
SIGNIFICANT WEATHER AND/OR NO OBSTRUCTIONS TO VISIBILITY.

NYZ032-033-038>043-046>054-057>066-NYZ062>081-222100-
EAST


CITY           SKY/WX    TMP DP  RH WIND       PRES   REMARKS
ALBANY         PTSUNNY   57  39  51 NW24G33   29.99R
GLENS FALLS    MOSUNNY   59  38  45 W10       29.92R
POUGHKEEPSIE   SUNNY     66  42  41 W15G23    29.93R
NEWBURGH       MOSUNNY   63  45  51 W23G32    29.96R
MONTGOMERY     SUNNY     63  42  46 NW18G26   29.96R
WHITE PLAINS   MOSUNNY   66  43  43 NW17G26   29.93R
ISLIP          MOSUNNY   71  48  43 W13       29.89R
NEW YORK CITY  PTSUNNY   70  44  39 W15       29.92R
CENTRAL PARK   MOSUNNY   69  43  38 W10G23    29.95S
$$

NYZ005>009-017-018-044>046-055-056-222100-
CENTRAL


CITY           SKY/WX    TMP DP  RH WIND       PRES   REMARKS
FULTON         CLOUDY    54  41  61 W12G21    30.05R
SYRACUSE       CLOUDY    54  40  59 W15G24    30.06R
ROME           CLOUDY    51  42  71 W15       30.04R
ELMIRA         CLOUDY    56  41  57 NW12      30.07R
BINGHAMTON     PTSUNNY   51  39  63 NW12G22   30.03R
MONTICELLO     CLOUDY    55  39  54 NW17G26   30.02R
$$

NYZ026>034-041>043-222100-
NORTH


CITY           SKY/WX    TMP DP  RH WIND       PRES   REMARKS
WATERTOWN      CLOUDY    56  39  53 W16       30.02R
FORT DRUM      NOT AVBL
MASSENA        CLOUDY    51  38  60 W14G26    29.98R
SARANAC LAKE   CLOUDY    43  37  79 W13       29.93R
PLATTSBURGH    PTSUNNY   52  37  56 W12G24    29.92R
$$

NYZ001>004-010>016-019>021-222100-
WEST


CITY           SKY/WX    TMP DP  RH WIND       PRES   REMARKS
NIAGARA FALLS  PTSUNNY   55  39  54 W15       30.11R
BUFFALO        PTSUNNY   54  38  54 W10       30.11S
DUNKIRK        CLOUDY    54  42  64 W13G21    30.14S
JAMESTOWN      CLOUDY    48  39  71 W8G16     30.15R
WELLSVILLE     CLOUDY    49  39  68 NW15      30.12R
ROCHESTER      CLOUDY    55  40  56 W16G23    30.09R
PENN YAN       CLOUDY    54  40  59 W8G23     30.08R
$$

             KEY
       WCI = WIND CHILL INDEX
       VSB = VISIBILITY
       HX  = HEAT INDEX
$$



USA.gov is the U.S. government's official web portal to all federal, state and local government web resources and services.